TimeMST,TemperatureF,Dew PointF,Humidity,Sea Level PressureIn,VisibilityMPH,Wind Direction,Wind SpeedMPH,Gust SpeedMPH,PrecipitationIn,Events,Conditions,WindDirDegrees,DateUTC
12:00 AM,-1.5,-5.4,83,30.01,-9999.0,North,24.2,-,N/A,,Unknown,0,2012-11-15 07:00:00
1:00 AM,-0.6,-3.8,86,29.99,-9999.0,North,40.3,-,N/A,,Unknown,0,2012-11-15 08:00:00
2:00 AM,5.2,0.1,80,29.97,-9999.0,North,11.5,-,N/A,,Unknown,0,2012-11-15 09:00:00
3:00 AM,4.8,-0.4,79,29.96,-9999.0,North,11.5,-,N/A,,Unknown,0,2012-11-15 10:00:00
4:00 AM,4.3,0.3,84,29.95,-9999.0,North,12.7,-,N/A,,Unknown,0,2012-11-15 11:00:00
5:00 AM,4,0,76,29.94,,Calm,Calm,,,,,100,2012-11-15 12:00:00
5:00 AM,3.9,0.1,84,29.94,-9999.0,North,11.5,-,N/A,,Unknown,0,2012-11-15 12:00:00
6:00 AM,3.7,-0.0,84,29.94,-9999.0,North,11.5,-,N/A,,Unknown,0,2012-11-15 13:00:00
7:00 AM,4.1,-0.4,82,29.94,-9999.0,North,11.5,-,N/A,,Unknown,0,2012-11-15 14:00:00
8:00 AM,4.1,-0.8,80,29.94,-9999.0,North,11.5,-,N/A,,Unknown,0,2012-11-15 15:00:00
9:00 AM,3.7,0.1,85,29.99,-9999.0,North,10.4,-,N/A,,Unknown,0,2012-11-15 16:00:00
10:00 AM,4.1,0.5,85,30.00,-9999.0,North,2.3,-,N/A,,Unknown,0,2012-11-15 17:00:00
11:00 AM,5,1,74,30.01,,Calm,Calm,,,,,120,2012-11-15 18:00:00
11:00 AM,5.0,0.7,82,30.01,-9999.0,North,13.8,-,N/A,,Unknown,0,2012-11-15 18:00:00
12:00 PM,4.6,-0.0,81,30.02,-9999.0,North,13.8,-,N/A,,Unknown,0,2012-11-15 19:00:00
1:00 PM,5.4,0.1,79,30.02,-9999.0,North,12.7,-,N/A,,Unknown,0,2012-11-15 20:00:00
2:00 PM,5.7,0.7,80,30.03,-9999.0,North,12.7,-,N/A,,Unknown,0,2012-11-15 21:00:00
3:00 PM,5.7,0.3,78,30.04,-9999.0,North,15.0,-,N/A,,Unknown,0,2012-11-15 22:00:00
4:00 PM,4.8,-0.6,78,30.06,-9999.0,North,13.8,-,N/A,,Unknown,0,2012-11-15 23:00:00
5:00 PM,5,-1,67,30.07,,Calm,Calm,,,,,110,2012-11-16 00:00:00
5:00 PM,4.6,-0.6,79,30.07,-9999.0,North,12.7,-,N/A,,Unknown,0,2012-11-16 00:00:00
6:00 PM,4.6,-0.6,79,30.07,-9999.0,North,12.7,-,N/A,,Unknown,0,2012-11-16 01:00:00
7:00 PM,4.1,-1.3,78,30.08,-9999.0,North,12.7,-,N/A,,Unknown,0,2012-11-16 02:00:00
8:00 PM,3.6,-1.1,81,30.09,-9999.0,North,12.7,-,N/A,,Unknown,0,2012-11-16 03:00:00
9:00 PM,4.1,-1.3,78,30.10,-9999.0,North,15.0,-,N/A,,Unknown,0,2012-11-16 04:00:00
10:00 PM,3.7,-1.8,78,30.11,-9999.0,North,12.7,-,N/A,,Unknown,0,2012-11-16 05:00:00
11:00 PM,3,-2,68,30.10,,Calm,Calm,,,,,70,2012-11-16 06:00:00
11:00 PM,3.4,-2.4,77,30.10,-9999.0,North,8.1,-,N/A,,Unknown,0,2012-11-16 06:00:00